Regional Weather Roundup
Issued by NWS

Home | Current Version | Previous Version | Graphics & Text | Print | Product List | Glossary On
Versions: 1 2 3 4 5 6 7 8 9 10 11 12 13 14 15 16 17 18 19 20 21 22 23 24 25 26 27 28 29 30 31 32 33 34 35 36 37 38 39 40 41 42 43 44 45 46 47 48 49 50
000
ASUS43 KMPX 291710
RWRMN
WEATHER ROUNDUP FOR MINNESOTA
NATIONAL WEATHER SERVICE TWIN CITIES/CHANHASSEN MN
1200 PM CDT SAT AUG 29 2015


NOTE: "FAIR" INDICATES FEW OR NO CLOUDS BELOW 12,000 FEET WITH NO
SIGNIFICANT WEATHER AND/OR OBSTRUCTIONS TO VISIBILITY. N/A MEANS
CURRENT SKY AND/OR WEATHER CONDITIONS ARE NOT AVAILABLE.

MNZ060>063-068>070-291800-
   Twin Cities Metro

CITY           SKY/WX    TMP DP  RH WIND       PRES   REMARKS
TWIN CITIES    CLOUDY    63  59  87 SE5       30.07F
ST PAUL        CLOUDY    64  59  83 E3        30.07F
CRYSTAL        SUNNY     68  59  73 VRB5      30.06S
BLAINE         MOSUNNY   70  63  78 CALM      30.06F
LAKEVILLE      CLOUDY    63  61  94 CALM      30.08S
EDEN PRAIRIE   CLOUDY    64  59  83 S3        30.07S
SOUTH ST PAUL  PTSUNNY   63  59  87 CALM      30.07F
LAKE ELMO      CLOUDY    63  59  88 S5        30.08F
$$
MNZ001>005-007-008-013>017-022>024-027-028-291800-
   Northwest Minnesota

CITY           SKY/WX    TMP DP  RH WIND       PRES   REMARKS
BEMIDJI        SUNNY     72  64  75 S7        29.99F
HALLOCK        CLOUDY    66  66 100 SE9       29.91F
ROSEAU         CLOUDY    68  63  83 SE9       29.95S
WARROAD        CLOUDY    68  64  88 SE7       29.96S
THIEF RVR FALL PTSUNNY  N/A N/A N/A S7        29.94S
CROOKSTON      PTSUNNY   72  66  83 S8        29.94S
FOSSTON        MOSUNNY   70  63  78 S10       29.97F
DETROIT LAKES  SUNNY     73  63  68 S12       30.01S
MOORHEAD       PTSUNNY   73  64  73 S14       29.97S
PARK RAPIDS    SUNNY     73  61  65 S10       30.01F
MAHNOMEN       FAIR      72  65  78 S13       29.97F
$$
MNZ006-009>011-018-025>026-291800-
   North Central Minnesota

CITY           SKY/WX    TMP DP  RH WIND       PRES   REMARKS
BAUDETTE       CLOUDY    69  65  86 S8        29.97S
FLAG ISLAND    CLOUDY    64  64 100 S9        29.95S FOG
INTL FALLS     MOSUNNY   73  65  75 VRB3      29.98S
WASKISH        CLOUDY    70  64  83 CALM      29.98F
BIG FORK       CLOUDY    70  63  78 S7        30.02S
LONGVILLE      SUNNY     72  61  68 SW5       30.02S
GRAND RAPIDS     N/A     66  57  72 S6        30.03F
ORR            CLOUDY    66  59  77 CALM      30.00S
COOK           CLOUDY    66  61  82 SW6       30.03S
WALKER         FAIR      71  62  72 S8        30.00F
$$
MNZ012-019>021-037-291800-
   Northeast Minnesota

CITY           SKY/WX    TMP DP  RH WIND       PRES   REMARKS
DULUTH         CLOUDY    70  58  65 SW9       30.04S
ELY            CLOUDY    64  59  82 SW5       30.03S
HIBBING        CLOUDY    67  59  75 S7        30.04S
EVELETH        CLOUDY    63  57  82 SW5       30.05S
DULUTH HARBOR  CLOUDY    70  61  73 SW7       30.04S
TWO HARBORS    PTSUNNY   73  63  68 W5        30.02R
SILVER BAY     CLOUDY    72  61  68 W3        30.01S
GRAND MARAIS     N/A     53  50  89 W6        30.00R
G MARAIS ARPRT CLOUDY    70  59  68 W6        30.04R
$$
MNZ029>031-032-039>041-046>048-054>057-064-291800-
   West Central Minnesota

CITY           SKY/WX    TMP DP  RH WIND       PRES   REMARKS
FERGUS FALLS   SUNNY     72  63  73 S14       30.00S
WHEATON        SUNNY     72  63  73 S13       30.01F
MORRIS         SUNNY     72  61  68 S12       30.02F
ALEXANDRIA     SUNNY     70  59  68 SW13      30.05F
ELBOW LAKE     FAIR      70  62  74 S13       30.02S
WADENA         SUNNY     73  61  64 SW13      30.02S
GLENWOOD       SUNNY     70  59  68 S9        30.06S
APPLETON       SUNNY     73  59  60 S9        30.02F
BENSON         SUNNY     72  59  64 SW9       30.04F
ORTONVILLE     SUNNY     72  63  73 S6        30.02S
MADISON        SUNNY     72  61  68 S6        30.04S
WILLMAR        FAIR      66  61  82 S3        30.07F
$$
MNZ033>034-036-042>043-049>051-058-059-291800-
   Central Minnesota

CITY           SKY/WX    TMP DP  RH WIND       PRES   REMARKS
ST CLOUD       SUNNY     68  59  73 S5        30.06S
SAUK CENTRE    FAIR      69  60  71 S8        30.05F
PAYNESVILLE    SUNNY     68  59  71 SE6       30.06F
AITKIN         CLOUDY    68  59  73 S8        30.03S
PINE RIVER     SUNNY     70  61  73 S8        30.05F
BRAINERD       PTSUNNY   66  58  75 S9        30.04F
STAPLES        SUNNY     72  59  64 S10       30.03F
LONG PRAIRIE   FAIR      68  59  73 S8        30.05F
LITTLE FALLS   SUNNY     68  55  64 S8        30.05F
LITCHFIELD     SUNNY     66  63  88 SE3       30.07S
BUFFALO        CLOUDY    62  58  88 S3        30.08S FOG
MAPLE LAKE     MOSUNNY   66  62  85 CALM      30.07F
$$
MNZ037-044-045-052-053-291800-
   East Central Minnesota

CITY           SKY/WX    TMP DP  RH WIND       PRES   REMARKS
PRINCETON      SUNNY     72  61  68 S5        30.06F
MORA           SUNNY     68  57  68 S7        30.07
CAMBRIDGE      SUNNY     72  57  60 S5        30.04F
RUSH CITY      SUNNY     69  60  72 S5        30.06F
MOOSE LAKE     CLOUDY    70  57  64 SW7       30.03F
HINCKLEY       FAIR      70  61  73 S6        30.06S
CLOQUET        CLOUDY    68  55  64 SW9       30.05S
MCGREGOR       CLOUDY    66  59  77 S6        30.05S
$$
MNZ071>073-080-081-089-090-097-098-291800-
   Southwest Minnesota

CITY           SKY/WX    TMP DP  RH WIND       PRES   REMARKS
MONTEVIDEO     SUNNY     73  63  68 SW6       30.07S
GRANITE FALLS  SUNNY     68  61  76 SE6       30.07F
CANBY          SUNNY     73  61  65 S6        30.05F
MARSHALL       SUNNY     72  57  60 S9        30.08F
REDWOOD FALLS  MOSUNNY   64  59  83 S6        30.06F
OLIVIA         SUNNY     61  59  94 S3        30.06S
PIPESTONE      SUNNY     70  61  73 W3        30.09S
WINDOM         SUNNY     66  59  77 CALM      30.08F
WORTHINGTON    CLOUDY    63  57  82 S3        30.10R
JACKSON        PTSUNNY   66  61  82 CALM      30.09F
TRACY          SUNNY     70  62  75 SE8       30.08S
SLAYTON        SUNNY     68  62  80 CALM      30.10S
$$
MNZ065>067-074>077-082>085-091>093-291800-
   South Central Minnesota

CITY           SKY/WX    TMP DP  RH WIND       PRES   REMARKS
MANKATO        CLOUDY    61  57  88 S3        30.08S
NEW ULM        CLOUDY    61  61 100 CALM      30.07F
ST JAMES       CLOUDY    63  61  94 CALM      30.09S
FAIRMONT       CLOUDY    61  55  82 CALM      30.08S
GLENCOE        CLOUDY    61  61 100 CALM      30.07F
FARIBAULT      PTSUNNY   64  61  88 CALM      30.08S
OWATONNA       MOSUNNY   66  61  82 CALM      30.07F
WASECA         CLOUDY    59  57  94 MISG      30.09S
ALBERT LEA     CLOUDY    64  63  94 E5        30.07S
$$
MNZ078>079-086>088-094>096-291800-
   Southeast Minnesota

CITY           SKY/WX    TMP DP  RH WIND       PRES   REMARKS
ROCHESTER      MOSUNNY   68  62  81 NE5       30.08S
RED WING       CLOUDY    64  59  82 CALM      30.06S
STANTON        CLOUDY    64  60  84 CALM      30.07S
DODGE CENTER   PTSUNNY   66  61  82 CALM      30.07F
WINONA         CLOUDY    66  61  82 CALM      30.07R
AUSTIN         PTSUNNY   70  63  78 CALM      30.06F
PRESTON        PTSUNNY   64  59  83 E3        30.07F
$$
ABBREVIATIONS USED IN REMARKS
   TC - TEMPERATURES IN CELSIUS
  WCI - WIND CHILL INDEX
   HX - HEAT INDEX
  VSB - VISIBILITY
$$


USA.gov is the U.S. government's official web portal to all federal, state and local government web resources and services.